Time,TemperatureF,DewpointF,PressureIn,WindDirection,WindDirectionDegrees,WindSpeedMPH,WindSpeedGustMPH,Humidity,HourlyPrecipIn,Conditions,Clouds,dailyrainin,SoftwareType,DateUTC
2013-10-14 00:00:00,49.6,43.7,30.14,WSW,252,0.0,0.0,80,0.00,,---,0.00,VWS V14.00,2013-10-14 07:00:00,
2013-10-14 00:01:00,49.3,43.4,30.14,WSW,252,0.0,1.0,80,0.00,,---,0.00,VWS V14.00,2013-10-14 07:01:00,
2013-10-14 00:06:00,49.1,43.2,30.14,WSW,251,0.0,1.0,80,0.00,,---,0.00,VWS V14.00,2013-10-14 07:06:00,
2013-10-14 00:11:00,49.0,43.1,30.14,WSW,252,0.0,0.0,80,0.00,,---,0.00,VWS V14.00,2013-10-14 07:11:00,
2013-10-14 00:15:00,49.0,43.1,30.14,WSW,252,0.0,1.0,80,0.00,,---,0.00,VWS V14.00,2013-10-14 07:15:00,
2013-10-14 00:16:00,48.8,43.2,30.14,WSW,252,0.0,0.0,81,0.00,,---,0.00,VWS V14.00,2013-10-14 07:16:00,
2013-10-14 00:21:00,48.7,42.8,30.14,WSW,252,0.0,0.0,80,0.00,,---,0.00,VWS V14.00,2013-10-14 07:21:00,
2013-10-14 00:26:00,48.6,42.7,30.14,WSW,251,0.0,0.0,80,0.00,,---,0.00,VWS V14.00,2013-10-14 07:26:00,
2013-10-14 00:30:00,48.7,42.8,30.14,WSW,252,0.0,0.0,80,0.00,,---,0.00,VWS V14.00,2013-10-14 07:30:00,
2013-10-14 00:31:00,48.5,42.6,30.14,WSW,251,0.0,0.0,80,0.00,,---,0.00,VWS V14.00,2013-10-14 07:31:00,
2013-10-14 00:36:00,48.3,42.8,30.15,WSW,252,0.0,0.0,81,0.00,,---,0.00,VWS V14.00,2013-10-14 07:36:00,
2013-10-14 00:41:00,48.1,42.5,30.15,WSW,251,0.0,0.0,81,0.00,,---,0.00,VWS V14.00,2013-10-14 07:41:00,
2013-10-14 00:45:00,48.3,42.8,30.15,WSW,251,0.0,0.0,81,0.00,,---,0.00,VWS V14.00,2013-10-14 07:45:00,
2013-10-14 00:46:00,48.0,42.5,30.15,WSW,252,0.0,0.0,81,0.00,,---,0.00,VWS V14.00,2013-10-14 07:46:00,
2013-10-14 00:51:00,47.8,42.3,30.15,WSW,252,0.0,0.0,81,0.00,,---,0.00,VWS V14.00,2013-10-14 07:51:00,
2013-10-14 00:56:00,47.7,42.2,30.15,WSW,252,0.0,0.0,81,0.00,,---,0.00,VWS V14.00,2013-10-14 07:56:00,
2013-10-14 01:00:00,47.8,42.3,30.15,WSW,251,0.0,0.0,81,0.00,,---,0.00,VWS V14.00,2013-10-14 08:00:00,
2013-10-14 01:01:00,47.6,42.1,30.15,WSW,251,0.0,0.0,81,0.00,,---,0.00,VWS V14.00,2013-10-14 08:01:00,
2013-10-14 01:06:00,47.5,42.0,30.15,WSW,251,0.0,0.0,81,0.00,,---,0.00,VWS V14.00,2013-10-14 08:06:00,
2013-10-14 01:11:00,47.3,41.8,30.15,WSW,252,0.0,0.0,81,0.00,,---,0.00,VWS V14.00,2013-10-14 08:11:00,
2013-10-14 01:15:00,47.4,41.9,30.15,WSW,252,0.0,0.0,81,0.00,,---,0.00,VWS V14.00,2013-10-14 08:15:00,
2013-10-14 01:16:00,47.2,41.7,30.15,WSW,251,0.0,0.0,81,0.00,,---,0.00,VWS V14.00,2013-10-14 08:16:00,
2013-10-14 01:21:00,47.1,41.6,30.14,WSW,251,0.0,0.0,81,0.00,,---,0.00,VWS V14.00,2013-10-14 08:21:00,
2013-10-14 01:26:00,47.0,41.8,30.14,WSW,252,0.0,0.0,82,0.00,,---,0.00,VWS V14.00,2013-10-14 08:26:00,
2013-10-14 01:30:00,47.1,41.6,30.14,WSW,251,0.0,0.0,81,0.00,,---,0.00,VWS V14.00,2013-10-14 08:30:00,
2013-10-14 01:31:00,46.9,41.4,30.14,WSW,252,0.0,0.0,81,0.00,,---,0.00,VWS V14.00,2013-10-14 08:31:00,
2013-10-14 01:36:00,46.8,41.6,30.14,WSW,251,0.0,0.0,82,0.00,,---,0.00,VWS V14.00,2013-10-14 08:36:00,
2013-10-14 01:41:00,46.7,41.5,30.14,WSW,251,0.0,0.0,82,0.00,,---,0.00,VWS V14.00,2013-10-14 08:41:00,
2013-10-14 01:45:00,46.8,41.6,30.14,WSW,251,0.0,0.0,82,0.00,,---,0.00,VWS V14.00,2013-10-14 08:45:00,
2013-10-14 01:46:00,46.6,41.4,30.14,WSW,252,0.0,0.0,82,0.00,,---,0.00,VWS V14.00,2013-10-14 08:46:00,
2013-10-14 01:51:00,46.4,41.2,30.15,WSW,252,0.0,0.0,82,0.00,,---,0.00,VWS V14.00,2013-10-14 08:51:00,
2013-10-14 01:56:00,46.4,41.5,30.14,WSW,251,0.0,0.0,83,0.00,,---,0.00,VWS V14.00,2013-10-14 08:56:00,
2013-10-14 02:00:00,46.4,41.2,30.15,WSW,252,0.0,0.0,82,0.00,,---,0.00,VWS V14.00,2013-10-14 09:00:00,
2013-10-14 02:01:00,46.2,41.3,30.15,WSW,252,0.0,0.0,83,0.00,,---,0.00,VWS V14.00,2013-10-14 09:01:00,
2013-10-14 02:06:00,46.1,41.2,30.15,WSW,252,0.0,0.0,83,0.00,,---,0.00,VWS V14.00,2013-10-14 09:06:00,
2013-10-14 02:11:00,46.0,41.1,30.14,WSW,251,0.0,0.0,83,0.00,,---,0.00,VWS V14.00,2013-10-14 09:11:00,
2013-10-14 02:15:00,46.1,41.2,30.14,WSW,252,0.0,0.0,83,0.00,,---,0.00,VWS V14.00,2013-10-14 09:15:00,
2013-10-14 02:16:00,46.0,41.1,30.14,WSW,251,0.0,0.0,83,0.00,,---,0.00,VWS V14.00,2013-10-14 09:16:00,
2013-10-14 02:21:00,45.8,40.9,30.14,WSW,252,0.0,0.0,83,0.00,,---,0.00,VWS V14.00,2013-10-14 09:21:00,
2013-10-14 02:26:00,45.7,41.2,30.15,WSW,252,0.0,0.0,84,0.00,,---,0.00,VWS V14.00,2013-10-14 09:26:00,
2013-10-14 02:30:00,45.8,41.2,30.15,WSW,252,0.0,0.0,84,0.00,,---,0.00,VWS V14.00,2013-10-14 09:30:00,
2013-10-14 02:31:00,45.6,41.0,30.15,WSW,252,0.0,1.0,84,0.00,,---,0.00,VWS V14.00,2013-10-14 09:31:00,
2013-10-14 02:36:00,45.5,41.0,30.15,WSW,251,0.0,1.0,84,0.00,,---,0.00,VWS V14.00,2013-10-14 09:36:00,
2013-10-14 02:41:00,45.4,40.9,30.15,WSW,251,0.0,0.0,84,0.00,,---,0.00,VWS V14.00,2013-10-14 09:41:00,
2013-10-14 02:45:00,45.5,41.0,30.15,WSW,251,0.0,1.0,84,0.00,,---,0.00,VWS V14.00,2013-10-14 09:45:00,
2013-10-14 02:46:00,45.3,40.8,30.15,WSW,252,0.0,0.0,84,0.00,,---,0.00,VWS V14.00,2013-10-14 09:46:00,
2013-10-14 02:51:00,45.2,40.7,30.15,WSW,252,0.0,0.0,84,0.00,,---,0.00,VWS V14.00,2013-10-14 09:51:00,
2013-10-14 02:56:00,45.1,40.6,30.15,WSW,252,0.0,0.0,84,0.00,,---,0.00,VWS V14.00,2013-10-14 09:56:00,
2013-10-14 03:00:00,45.2,40.7,30.15,WSW,252,0.0,0.0,84,0.00,,---,0.00,VWS V14.00,2013-10-14 10:00:00,
2013-10-14 03:01:00,45.0,40.5,30.15,WSW,251,0.0,0.0,84,0.00,,---,0.00,VWS V14.00,2013-10-14 10:01:00,
2013-10-14 03:06:00,44.9,40.7,30.15,WSW,252,0.0,0.0,85,0.00,,---,0.00,VWS V14.00,2013-10-14 10:06:00,
2013-10-14 03:11:00,44.8,40.6,30.15,WSW,252,0.0,0.0,85,0.00,,---,0.00,VWS V14.00,2013-10-14 10:11:00,
2013-10-14 03:15:00,44.9,40.7,30.15,WSW,251,0.0,0.0,85,0.00,,---,0.00,VWS V14.00,2013-10-14 10:15:00,
2013-10-14 03:16:00,44.7,40.5,30.15,WSW,252,0.0,0.0,85,0.00,,---,0.00,VWS V14.00,2013-10-14 10:16:00,
2013-10-14 03:21:00,44.7,40.5,30.14,WSW,251,0.0,0.0,85,0.00,,---,0.00,VWS V14.00,2013-10-14 10:21:00,
2013-10-14 03:26:00,44.6,40.4,30.14,WSW,252,0.0,0.0,85,0.00,,---,0.00,VWS V14.00,2013-10-14 10:26:00,
2013-10-14 03:30:00,44.7,40.5,30.14,WSW,251,0.0,0.0,85,0.00,,---,0.00,VWS V14.00,2013-10-14 10:30:00,
2013-10-14 03:31:00,44.5,40.3,30.14,WSW,251,0.0,0.0,85,0.00,,---,0.00,VWS V14.00,2013-10-14 10:31:00,
2013-10-14 03:36:00,44.3,40.1,30.14,WSW,252,0.0,0.0,85,0.00,,---,0.00,VWS V14.00,2013-10-14 10:36:00,
2013-10-14 03:41:00,44.3,40.1,30.14,WSW,252,0.0,0.0,85,0.00,,---,0.00,VWS V14.00,2013-10-14 10:41:00,
2013-10-14 03:45:00,44.3,40.1,30.14,WSW,252,0.0,0.0,85,0.00,,---,0.00,VWS V14.00,2013-10-14 10:45:00,
2013-10-14 03:46:00,44.1,39.9,30.14,WSW,252,0.0,0.0,85,0.00,,---,0.00,VWS V14.00,2013-10-14 10:46:00,
2013-10-14 03:51:00,44.0,39.8,30.14,WSW,251,0.0,0.0,85,0.00,,---,0.00,VWS V14.00,2013-10-14 10:51:00,
2013-10-14 03:56:00,43.8,39.6,30.14,WSW,251,0.0,0.0,85,0.00,,---,0.00,VWS V14.00,2013-10-14 10:56:00,
2013-10-14 04:00:00,43.9,39.7,30.14,WSW,252,0.0,0.0,85,0.00,,---,0.00,VWS V14.00,2013-10-14 11:00:00,
2013-10-14 04:01:00,43.7,39.5,30.14,WSW,251,0.0,1.0,85,0.00,,---,0.00,VWS V14.00,2013-10-14 11:01:00,
2013-10-14 04:06:00,43.6,39.4,30.15,WSW,252,0.0,1.0,85,0.00,,---,0.00,VWS V14.00,2013-10-14 11:06:00,
2013-10-14 04:11:00,43.4,39.2,30.15,WSW,251,0.0,0.0,85,0.00,,---,0.00,VWS V14.00,2013-10-14 11:11:00,
2013-10-14 04:15:00,43.5,39.3,30.15,WSW,252,0.0,1.0,85,0.00,,---,0.00,VWS V14.00,2013-10-14 11:15:00,
2013-10-14 04:16:00,43.4,39.2,30.15,WSW,252,0.0,0.0,85,0.00,,---,0.00,VWS V14.00,2013-10-14 11:16:00,
2013-10-14 04:21:00,43.3,39.1,30.15,WSW,251,0.0,0.0,85,0.00,,---,0.00,VWS V14.00,2013-10-14 11:21:00,
2013-10-14 04:26:00,43.2,39.0,30.15,WSW,252,0.0,0.0,85,0.00,,---,0.00,VWS V14.00,2013-10-14 11:26:00,
2013-10-14 04:30:00,43.3,39.1,30.15,WSW,251,0.0,0.0,85,0.00,,---,0.00,VWS V14.00,2013-10-14 11:30:00,
2013-10-14 04:31:00,43.1,39.2,30.15,WSW,252,0.0,0.0,86,0.00,,---,0.00,VWS V14.00,2013-10-14 11:31:00,
2013-10-14 04:36:00,43.1,39.2,30.15,WSW,252,0.0,0.0,86,0.00,,---,0.00,VWS V14.00,2013-10-14 11:36:00,
2013-10-14 04:41:00,43.0,39.1,30.15,WSW,252,0.0,0.0,86,0.00,,---,0.00,VWS V14.00,2013-10-14 11:41:00,
2013-10-14 04:45:00,43.0,39.1,30.15,WSW,251,0.0,0.0,86,0.00,,---,0.00,VWS V14.00,2013-10-14 11:45:00,
2013-10-14 04:46:00,42.9,39.0,30.15,WSW,251,0.0,0.0,86,0.00,,---,0.00,VWS V14.00,2013-10-14 11:46:00,
2013-10-14 04:51:00,42.8,38.9,30.15,WSW,251,0.0,0.0,86,0.00,,---,0.00,VWS V14.00,2013-10-14 11:51:00,
2013-10-14 04:56:00,42.7,38.8,30.15,WSW,252,0.0,0.0,86,0.00,,---,0.00,VWS V14.00,2013-10-14 11:56:00,
2013-10-14 05:00:00,42.8,38.9,30.15,WSW,251,0.0,0.0,86,0.00,,---,0.00,VWS V14.00,2013-10-14 12:00:00,
2013-10-14 05:01:00,42.6,38.7,30.15,WSW,251,0.0,0.0,86,0.00,,---,0.00,VWS V14.00,2013-10-14 12:01:00,
2013-10-14 05:06:00,42.6,38.7,30.15,WSW,252,0.0,0.0,86,0.00,,---,0.00,VWS V14.00,2013-10-14 12:06:00,
2013-10-14 05:11:00,42.5,38.6,30.15,WSW,252,0.0,0.0,86,0.00,,---,0.00,VWS V14.00,2013-10-14 12:11:00,
2013-10-14 05:15:00,42.5,38.6,30.15,WSW,251,0.0,0.0,86,0.00,,---,0.00,VWS V14.00,2013-10-14 12:15:00,
2013-10-14 05:16:00,42.4,38.5,30.16,WSW,252,0.0,0.0,86,0.00,,---,0.00,VWS V14.00,2013-10-14 12:16:00,
2013-10-14 05:21:00,42.4,38.5,30.15,WSW,252,0.0,0.0,86,0.00,,---,0.00,VWS V14.00,2013-10-14 12:21:00,
2013-10-14 05:26:00,42.3,38.4,30.15,WSW,251,0.0,0.0,86,0.00,,---,0.00,VWS V14.00,2013-10-14 12:26:00,
2013-10-14 05:30:00,42.4,38.5,30.15,WSW,251,0.0,0.0,86,0.00,,---,0.00,VWS V14.00,2013-10-14 12:30:00,
2013-10-14 05:31:00,42.2,38.3,30.15,WSW,251,0.0,0.0,86,0.00,,---,0.00,VWS V14.00,2013-10-14 12:31:00,
2013-10-14 05:36:00,42.2,38.3,30.16,WSW,251,0.0,0.0,86,0.00,,---,0.00,VWS V14.00,2013-10-14 12:36:00,
2013-10-14 05:41:00,42.1,38.2,30.16,WSW,252,0.0,0.0,86,0.00,,---,0.00,VWS V14.00,2013-10-14 12:41:00,
2013-10-14 05:45:00,42.1,38.2,30.16,WSW,251,0.0,0.0,86,0.00,,---,0.00,VWS V14.00,2013-10-14 12:45:00,
2013-10-14 05:46:00,42.0,38.1,30.16,WSW,252,0.0,0.0,86,0.00,,---,0.00,VWS V14.00,2013-10-14 12:46:00,
2013-10-14 05:51:00,41.9,38.0,30.16,WSW,251,0.0,0.0,86,0.00,,---,0.00,VWS V14.00,2013-10-14 12:51:00,
2013-10-14 05:56:00,41.8,37.9,30.16,WSW,251,0.0,0.0,86,0.00,,---,0.00,VWS V14.00,2013-10-14 12:56:00,
2013-10-14 06:00:00,41.9,38.0,30.16,WSW,251,0.0,0.0,86,0.00,,---,0.00,VWS V14.00,2013-10-14 13:00:00,
2013-10-14 06:01:00,41.8,37.9,30.16,WSW,251,0.0,0.0,86,0.00,,---,0.00,VWS V14.00,2013-10-14 13:01:00,
2013-10-14 06:06:00,41.8,38.2,30.16,WSW,251,0.0,0.0,87,0.00,,---,0.00,VWS V14.00,2013-10-14 13:06:00,
2013-10-14 06:11:00,41.8,38.2,30.17,WSW,251,0.0,0.0,87,0.00,,---,0.00,VWS V14.00,2013-10-14 13:11:00,
2013-10-14 06:15:00,41.8,38.2,30.16,WSW,251,0.0,0.0,87,0.00,,---,0.00,VWS V14.00,2013-10-14 13:15:00,
2013-10-14 06:16:00,41.9,38.3,30.17,WSW,252,0.0,0.0,87,0.00,,---,0.00,VWS V14.00,2013-10-14 13:16:00,
2013-10-14 06:21:00,41.9,38.3,30.17,WSW,252,0.0,0.0,87,0.00,,---,0.00,VWS V14.00,2013-10-14 13:21:00,
2013-10-14 06:26:00,41.8,38.2,30.17,WSW,252,0.0,0.0,87,0.00,,---,0.00,VWS V14.00,2013-10-14 13:26:00,
2013-10-14 06:30:00,41.8,38.2,30.17,WSW,251,0.0,0.0,87,0.00,,---,0.00,VWS V14.00,2013-10-14 13:30:00,
2013-10-14 06:31:00,41.8,38.2,30.17,WSW,252,0.0,0.0,87,0.00,,---,0.00,VWS V14.00,2013-10-14 13:31:00,
2013-10-14 06:36:00,41.7,38.4,30.17,WSW,252,0.0,0.0,88,0.00,,---,0.00,VWS V14.00,2013-10-14 13:36:00,
2013-10-14 06:41:00,41.7,38.1,30.17,WSW,251,0.0,0.0,87,0.00,,---,0.00,VWS V14.00,2013-10-14 13:41:00,
2013-10-14 06:45:00,41.7,39.5,30.17,WSW,252,0.0,0.0,92,0.00,,---,0.00,VWS V14.00,2013-10-14 13:45:00,
2013-10-14 06:46:00,41.6,38.0,30.17,WSW,251,0.0,0.0,87,0.00,,---,0.00,VWS V14.00,2013-10-14 13:46:00,
2013-10-14 06:50:00,41.5,37.9,30.17,WSW,252,0.0,0.0,87,0.00,,---,0.00,VWS V14.00,2013-10-14 13:50:00,
2013-10-14 06:55:00,41.5,38.2,30.17,WSW,251,0.0,0.0,88,0.00,,---,0.00,VWS V14.00,2013-10-14 13:55:00,
2013-10-14 07:00:00,41.4,38.1,30.17,WSW,252,0.0,0.0,88,0.00,,---,0.00,VWS V14.00,2013-10-14 14:00:00,
2013-10-14 07:05:00,41.4,38.1,30.18,WSW,251,0.0,0.0,88,0.00,,---,0.00,VWS V14.00,2013-10-14 14:05:00,
2013-10-14 07:10:00,41.3,38.0,30.17,WSW,252,0.0,0.0,88,0.00,,---,0.00,VWS V14.00,2013-10-14 14:10:00,
2013-10-14 07:15:00,41.3,38.0,30.17,WSW,251,0.0,0.0,88,0.00,,---,0.00,VWS V14.00,2013-10-14 14:15:00,
2013-10-14 07:20:00,41.3,38.0,30.18,WSW,251,0.0,0.0,88,0.00,,---,0.00,VWS V14.00,2013-10-14 14:20:00,
2013-10-14 07:25:00,41.2,37.9,30.18,WSW,252,0.0,0.0,88,0.00,,---,0.00,VWS V14.00,2013-10-14 14:25:00,
2013-10-14 07:30:00,41.1,37.8,30.18,WSW,251,0.0,0.0,88,0.00,,---,0.00,VWS V14.00,2013-10-14 14:30:00,
2013-10-14 07:35:00,41.0,37.7,30.18,WSW,252,0.0,0.0,88,0.00,,---,0.00,VWS V14.00,2013-10-14 14:35:00,
2013-10-14 07:40:00,41.0,37.7,30.18,WSW,252,0.0,0.0,88,0.00,,---,0.00,VWS V14.00,2013-10-14 14:40:00,
2013-10-14 07:45:00,41.0,37.7,30.18,WSW,251,0.0,0.0,88,0.00,,---,0.00,VWS V14.00,2013-10-14 14:45:00,
2013-10-14 07:50:00,41.0,37.7,30.19,WSW,251,0.0,0.0,88,0.00,,---,0.00,VWS V14.00,2013-10-14 14:50:00,
2013-10-14 07:55:00,41.1,37.8,30.19,WSW,252,0.0,0.0,88,0.00,,---,0.00,VWS V14.00,2013-10-14 14:55:00,
2013-10-14 08:00:00,41.3,38.0,30.19,WSW,252,0.0,0.0,88,0.00,,---,0.00,VWS V14.00,2013-10-14 15:00:00,
2013-10-14 08:05:00,41.6,38.6,30.19,WSW,251,0.0,0.0,89,0.00,,---,0.00,VWS V14.00,2013-10-14 15:05:00,
2013-10-14 08:10:00,42.3,39.3,30.19,WSW,252,0.0,0.0,89,0.00,,---,0.00,VWS V14.00,2013-10-14 15:10:00,
2013-10-14 08:15:00,43.0,40.3,30.19,WSW,252,0.0,0.0,90,0.00,,---,0.00,VWS V14.00,2013-10-14 15:15:00,
2013-10-14 08:20:00,43.5,40.8,30.19,WSW,252,0.0,0.0,90,0.00,,---,0.00,VWS V14.00,2013-10-14 15:20:00,
2013-10-14 08:25:00,44.6,41.8,30.19,WSW,252,0.0,0.0,90,0.00,,---,0.00,VWS V14.00,2013-10-14 15:25:00,
2013-10-14 08:30:00,45.3,42.8,30.20,WSW,252,0.0,0.0,91,0.00,,---,0.00,VWS V14.00,2013-10-14 15:30:00,
2013-10-14 08:35:00,46.1,43.6,30.20,WSW,251,0.0,0.0,91,0.00,,---,0.00,VWS V14.00,2013-10-14 15:35:00,
2013-10-14 08:40:00,46.8,44.3,30.20,WSW,252,0.0,0.0,91,0.00,,---,0.00,VWS V14.00,2013-10-14 15:40:00,
2013-10-14 08:45:00,47.4,44.9,30.20,WSW,252,0.0,0.0,91,0.00,,---,0.00,VWS V14.00,2013-10-14 15:45:00,
2013-10-14 08:50:00,48.2,45.7,30.20,WSW,252,0.0,0.0,91,0.00,,---,0.00,VWS V14.00,2013-10-14 15:50:00,
2013-10-14 08:55:00,49.1,46.6,30.20,WSW,252,0.0,0.0,91,0.00,,---,0.00,VWS V14.00,2013-10-14 15:55:00,
2013-10-14 09:00:00,49.9,47.4,30.20,WSW,252,0.0,1.0,91,0.00,,---,0.00,VWS V14.00,2013-10-14 16:00:00,
2013-10-14 09:05:00,50.7,47.9,30.20,WSW,252,0.0,2.0,90,0.00,,---,0.00,VWS V14.00,2013-10-14 16:05:00,
2013-10-14 09:10:00,51.6,48.5,30.20,WSW,252,0.0,1.0,89,0.00,,---,0.00,VWS V14.00,2013-10-14 16:10:00,
2013-10-14 09:15:00,52.4,49.0,30.20,WSW,252,0.0,1.0,88,0.00,,---,0.00,VWS V14.00,2013-10-14 16:15:00,
2013-10-14 09:20:00,53.0,48.9,30.20,WSW,252,0.0,1.0,86,0.00,,---,0.00,VWS V14.00,2013-10-14 16:20:00,
2013-10-14 09:25:00,53.9,48.5,30.20,WSW,252,0.0,0.0,82,0.00,,---,0.00,VWS V14.00,2013-10-14 16:25:00,
2013-10-14 09:30:00,54.7,48.7,30.20,WSW,252,0.0,1.0,80,0.00,,---,0.00,VWS V14.00,2013-10-14 16:30:00,
2013-10-14 09:35:00,55.6,48.2,30.20,WSW,252,0.0,1.0,76,0.00,,---,0.00,VWS V14.00,2013-10-14 16:35:00,
2013-10-14 09:40:00,56.4,47.1,30.20,WSW,252,0.0,0.0,71,0.00,,---,0.00,VWS V14.00,2013-10-14 16:40:00,
2013-10-14 09:45:00,57.1,47.4,30.20,WSW,252,0.0,3.0,70,0.00,,---,0.00,VWS V14.00,2013-10-14 16:45:00,
2013-10-14 09:50:00,57.8,46.9,30.20,WSW,252,0.0,3.0,67,0.00,,---,0.00,VWS V14.00,2013-10-14 16:50:00,
2013-10-14 09:55:00,58.2,46.5,30.20,WSW,252,0.0,1.0,65,0.00,,---,0.00,VWS V14.00,2013-10-14 16:55:00,
2013-10-14 10:00:00,58.8,46.7,30.19,WSW,252,0.0,1.0,64,0.00,,---,0.00,VWS V14.00,2013-10-14 17:00:00,
2013-10-14 10:05:00,59.4,46.4,30.19,WSW,252,0.0,1.0,62,0.00,,---,0.00,VWS V14.00,2013-10-14 17:05:00,
2013-10-14 10:10:00,60.2,46.7,30.20,WSW,252,0.0,0.0,61,0.00,,---,0.00,VWS V14.00,2013-10-14 17:10:00,
2013-10-14 10:15:00,61.1,47.1,30.19,WSW,252,0.0,1.0,60,0.00,,---,0.00,VWS V14.00,2013-10-14 17:15:00,
2013-10-14 10:20:00,62.1,46.7,30.20,WSW,252,0.0,1.0,57,0.00,,---,0.00,VWS V14.00,2013-10-14 17:20:00,
2013-10-14 10:25:00,62.7,46.8,30.19,WSW,252,0.0,1.0,56,0.00,,---,0.00,VWS V14.00,2013-10-14 17:25:00,
2013-10-14 10:30:00,63.2,46.3,30.19,WSW,252,1.0,3.0,54,0.00,,---,0.00,VWS V14.00,2013-10-14 17:30:00,
2013-10-14 10:35:00,63.9,47.0,30.19,WSW,252,0.0,3.0,54,0.00,,---,0.00,VWS V14.00,2013-10-14 17:35:00,
2013-10-14 10:40:00,65.0,47.0,30.19,WSW,252,0.0,1.0,52,0.00,,---,0.00,VWS V14.00,2013-10-14 17:40:00,
2013-10-14 10:45:00,66.1,46.4,30.19,WSW,252,0.0,1.0,49,0.00,,---,0.00,VWS V14.00,2013-10-14 17:45:00,
2013-10-14 10:50:00,66.5,46.2,30.19,WSW,252,0.0,3.0,48,0.00,,---,0.00,VWS V14.00,2013-10-14 17:50:00,
2013-10-14 10:55:00,67.1,46.2,30.19,WSW,252,0.0,1.0,47,0.00,,---,0.00,VWS V14.00,2013-10-14 17:55:00,
2013-10-14 11:00:00,67.7,46.2,30.19,WSW,252,0.0,1.0,46,0.00,,---,0.00,VWS V14.00,2013-10-14 18:00:00,
2013-10-14 11:05:00,68.2,46.7,30.19,WSW,252,0.0,1.0,46,0.00,,---,0.00,VWS V14.00,2013-10-14 18:05:00,
2013-10-14 11:10:00,68.9,46.7,30.19,WSW,252,0.0,0.0,45,0.00,,---,0.00,VWS V14.00,2013-10-14 18:10:00,
2013-10-14 11:15:00,69.5,46.0,30.18,WSW,252,0.0,1.0,43,0.00,,---,0.00,VWS V14.00,2013-10-14 18:15:00,
2013-10-14 11:20:00,69.9,44.5,30.18,WSW,252,0.0,1.0,40,0.00,,---,0.00,VWS V14.00,2013-10-14 18:20:00,
2013-10-14 11:25:00,69.4,44.7,30.18,WSW,252,0.0,0.0,41,0.00,,---,0.00,VWS V14.00,2013-10-14 18:25:00,
2013-10-14 11:30:00,71.0,44.8,30.18,WSW,252,1.0,1.0,39,0.00,,---,0.00,VWS V14.00,2013-10-14 18:30:00,
2013-10-14 11:35:00,70.8,44.6,30.18,WSW,252,0.0,1.0,39,0.00,,---,0.00,VWS V14.00,2013-10-14 18:35:00,
2013-10-14 11:40:00,71.7,44.8,30.18,WSW,250,0.0,1.0,38,0.00,,---,0.00,VWS V14.00,2013-10-14 18:40:00,
2013-10-14 11:45:00,72.7,44.2,30.18,WSW,250,0.0,4.0,36,0.00,,---,0.00,VWS V14.00,2013-10-14 18:45:00,
2013-10-14 11:50:00,75.1,45.6,30.18,WSW,250,0.0,4.0,35,0.00,,---,0.00,VWS V14.00,2013-10-14 18:50:00,
2013-10-14 11:55:00,74.2,43.3,30.18,WSW,250,0.0,0.0,33,0.00,,---,0.00,VWS V14.00,2013-10-14 18:55:00,
2013-10-14 12:00:00,73.2,43.2,30.17,WSW,250,1.0,1.0,34,0.00,,---,0.00,VWS V14.00,2013-10-14 19:00:00,
2013-10-14 12:05:00,73.4,44.1,30.17,WSW,250,0.0,1.0,35,0.00,,---,0.00,VWS V14.00,2013-10-14 19:05:00,
2013-10-14 12:10:00,73.3,43.3,30.17,WSW,250,0.0,4.0,34,0.00,,---,0.00,VWS V14.00,2013-10-14 19:10:00,
2013-10-14 12:15:00,74.3,44.1,30.17,WSW,250,1.0,4.0,34,0.00,,---,0.00,VWS V14.00,2013-10-14 19:15:00,
2013-10-14 12:20:00,74.2,43.3,30.17,WSW,250,0.0,4.0,33,0.00,,---,0.00,VWS V14.00,2013-10-14 19:20:00,
2013-10-14 12:25:00,74.0,42.3,30.17,WSW,250,0.0,3.0,32,0.00,,---,0.00,VWS V14.00,2013-10-14 19:25:00,
2013-10-14 12:30:00,75.9,43.1,30.17,WSW,250,0.0,4.0,31,0.00,,---,0.00,VWS V14.00,2013-10-14 19:30:00,
2013-10-14 12:35:00,78.0,43.2,30.17,WSW,250,0.0,4.0,29,0.00,,---,0.00,VWS V14.00,2013-10-14 19:35:00,
2013-10-14 12:40:00,78.9,44.0,30.16,WSW,250,0.0,1.0,29,0.00,,---,0.00,VWS V14.00,2013-10-14 19:40:00,
2013-10-14 12:45:00,78.7,41.9,30.16,WSW,250,0.0,4.0,27,0.00,,---,0.00,VWS V14.00,2013-10-14 19:45:00,
2013-10-14 12:50:00,78.4,41.7,30.16,WSW,250,0.0,4.0,27,0.00,,---,0.00,VWS V14.00,2013-10-14 19:50:00,
2013-10-14 12:55:00,78.6,41.9,30.15,WSW,250,0.0,0.0,27,0.00,,---,0.00,VWS V14.00,2013-10-14 19:55:00,
2013-10-14 13:00:00,79.9,41.0,30.15,WSW,250,0.0,0.0,25,0.00,,---,0.00,VWS V14.00,2013-10-14 20:00:00,
2013-10-14 13:05:00,81.8,41.5,30.14,WSW,250,0.0,3.0,24,0.00,,---,0.00,VWS V14.00,2013-10-14 20:05:00,
2013-10-14 13:10:00,83.4,41.8,30.14,WSW,250,0.0,6.0,23,0.00,,---,0.00,VWS V14.00,2013-10-14 20:10:00,
2013-10-14 13:15:00,81.3,41.1,30.14,WSW,250,0.0,6.0,24,0.00,,---,0.00,VWS V14.00,2013-10-14 20:15:00,
2013-10-14 13:20:00,78.9,40.1,30.13,WSW,250,0.0,6.0,25,0.00,,---,0.00,VWS V14.00,2013-10-14 20:20:00,
2013-10-14 13:25:00,80.7,41.7,30.13,WSW,250,0.0,1.0,25,0.00,,---,0.00,VWS V14.00,2013-10-14 20:25:00,
2013-10-14 13:30:00,83.3,41.7,30.13,WSW,257,0.0,6.0,23,0.00,,---,0.00,VWS V14.00,2013-10-14 20:30:00,
2013-10-14 13:35:00,83.9,41.0,30.13,WSW,258,2.0,6.0,22,0.00,,---,0.00,VWS V14.00,2013-10-14 20:35:00,
2013-10-14 13:40:00,84.1,40.0,30.12,WSW,258,1.0,4.0,21,0.00,,---,0.00,VWS V14.00,2013-10-14 20:40:00,
2013-10-14 13:45:00,85.4,38.5,30.12,WSW,258,0.0,4.0,19,0.00,,---,0.00,VWS V14.00,2013-10-14 20:45:00,
2013-10-14 13:50:00,84.1,40.0,30.12,WSW,258,0.0,4.0,21,0.00,,---,0.00,VWS V14.00,2013-10-14 20:50:00,
2013-10-14 13:55:00,81.9,39.4,30.11,WSW,258,0.0,4.0,22,0.00,,---,0.00,VWS V14.00,2013-10-14 20:55:00,
2013-10-14 14:00:00,82.9,40.2,30.11,WSW,258,1.0,4.0,22,0.00,,---,0.00,VWS V14.00,2013-10-14 21:00:00,
2013-10-14 14:02:00,83.7,40.9,30.11,WSW,258,0.0,4.0,22,0.00,,---,0.00,VWS V14.00,2013-10-14 21:02:00,
2013-10-14 14:07:00,83.1,40.4,30.11,WSW,258,2.0,7.0,22,0.00,,---,0.00,VWS V14.00,2013-10-14 21:07:00,
2013-10-14 14:12:00,85.1,39.6,30.11,WSW,258,0.0,7.0,20,0.00,,---,0.00,VWS V14.00,2013-10-14 21:12:00,
2013-10-14 14:15:00,83.5,39.5,30.11,WSW,258,0.0,7.0,21,0.00,,---,0.00,VWS V14.00,2013-10-14 21:15:00,
2013-10-14 14:17:00,81.5,39.0,30.11,WSW,258,0.0,7.0,22,0.00,,---,0.00,VWS V14.00,2013-10-14 21:17:00,
2013-10-14 14:22:00,82.2,39.6,30.10,WSW,258,0.0,7.0,22,0.00,,---,0.00,VWS V14.00,2013-10-14 21:22:00,
2013-10-14 14:27:00,85.0,40.7,30.10,WSW,258,3.0,5.0,21,0.00,,---,0.00,VWS V14.00,2013-10-14 21:27:00,
2013-10-14 14:30:00,82.6,39.9,30.10,WSW,258,0.0,7.0,22,0.00,,---,0.00,VWS V14.00,2013-10-14 21:30:00,
2013-10-14 14:32:00,85.6,38.7,30.10,West,266,1.0,8.0,19,0.00,,---,0.00,VWS V14.00,2013-10-14 21:32:00,
2013-10-14 14:37:00,86.2,39.2,30.10,West,266,0.0,8.0,19,0.00,,---,0.00,VWS V14.00,2013-10-14 21:37:00,
2013-10-14 14:42:00,85.7,38.7,30.10,West,266,1.0,3.0,19,0.00,,---,0.00,VWS V14.00,2013-10-14 21:42:00,
2013-10-14 14:45:00,86.2,39.2,30.10,West,266,0.0,8.0,19,0.00,,---,0.00,VWS V14.00,2013-10-14 21:45:00,
2013-10-14 14:47:00,86.5,39.4,30.09,West,266,0.0,3.0,19,0.00,,---,0.00,VWS V14.00,2013-10-14 21:47:00,
2013-10-14 14:52:00,83.3,38.1,30.09,West,266,0.0,3.0,20,0.00,,---,0.00,VWS V14.00,2013-10-14 21:52:00,
2013-10-14 14:57:00,81.9,36.9,30.09,West,266,1.0,3.0,20,0.00,,---,0.00,VWS V14.00,2013-10-14 21:57:00,
2013-10-14 15:00:00,83.0,37.8,30.09,West,266,0.0,3.0,20,0.00,,---,0.00,VWS V14.00,2013-10-14 22:00:00,
2013-10-14 15:02:00,83.7,39.7,30.09,West,266,0.0,3.0,21,0.00,,---,0.00,VWS V14.00,2013-10-14 22:02:00,
2013-10-14 15:07:00,86.5,40.7,30.09,West,266,1.0,4.0,20,0.00,,---,0.00,VWS V14.00,2013-10-14 22:07:00,
2013-10-14 15:12:00,87.3,40.0,30.09,West,266,0.0,3.0,19,0.00,,---,0.00,VWS V14.00,2013-10-14 22:12:00,
2013-10-14 15:15:00,86.7,39.6,30.09,West,266,1.0,4.0,19,0.00,,---,0.00,VWS V14.00,2013-10-14 22:15:00,
2013-10-14 15:17:00,87.5,38.8,30.09,West,266,0.0,4.0,18,0.00,,---,0.00,VWS V14.00,2013-10-14 22:17:00,
2013-10-14 15:22:00,84.9,38.1,30.08,West,266,0.0,4.0,19,0.00,,---,0.00,VWS V14.00,2013-10-14 22:22:00,
2013-10-14 15:27:00,83.0,37.8,30.08,West,266,0.0,1.0,20,0.00,,---,0.00,VWS V14.00,2013-10-14 22:27:00,
2013-10-14 15:30:00,84.5,37.8,30.08,West,266,0.0,4.0,19,0.00,,---,0.00,VWS V14.00,2013-10-14 22:30:00,
2013-10-14 15:32:00,84.1,38.7,30.08,West,266,4.0,4.0,20,0.00,,---,0.00,VWS V14.00,2013-10-14 22:32:00,
2013-10-14 15:37:00,84.0,41.1,30.08,West,261,5.0,9.0,22,0.00,,---,0.00,VWS V14.00,2013-10-14 22:37:00,
2013-10-14 15:41:00,83.4,41.8,30.08,WSW,253,9.0,10.0,23,0.00,,---,0.00,VWS V14.00,2013-10-14 22:41:00,
2013-10-14 15:45:00,83.9,41.0,30.08,West,261,1.0,9.0,22,0.00,,---,0.00,VWS V14.00,2013-10-14 22:45:00,
2013-10-14 15:46:00,82.7,41.2,30.08,West,262,5.0,11.0,23,0.00,,---,0.00,VWS V14.00,2013-10-14 22:46:00,
2013-10-14 15:51:00,82.3,40.8,30.07,West,262,8.0,11.0,23,0.00,,---,0.00,VWS V14.00,2013-10-14 22:51:00,
2013-10-14 15:56:00,82.1,41.8,30.07,West,269,7.0,11.0,24,0.00,,---,0.00,VWS V14.00,2013-10-14 22:56:00,
2013-10-14 16:00:00,82.1,41.8,30.07,West,261,4.0,11.0,24,0.00,,---,0.00,VWS V14.00,2013-10-14 23:00:00,
2013-10-14 16:01:00,82.1,40.7,30.07,West,260,5.0,11.0,23,0.00,,---,0.00,VWS V14.00,2013-10-14 23:01:00,
2013-10-14 16:06:00,81.4,41.2,30.07,WSW,243,7.0,12.0,24,0.00,,---,0.00,VWS V14.00,2013-10-14 23:06:00,
2013-10-14 16:11:00,81.5,41.3,30.07,West,267,2.0,12.0,24,0.00,,---,0.00,VWS V14.00,2013-10-14 23:11:00,
2013-10-14 16:15:00,81.3,41.1,30.07,West,267,11.0,12.0,24,0.00,,---,0.00,VWS V14.00,2013-10-14 23:15:00,
2013-10-14 16:16:00,81.3,41.1,30.07,West,270,6.0,12.0,24,0.00,,---,0.00,VWS V14.00,2013-10-14 23:16:00,
2013-10-14 16:21:00,81.3,40.0,30.07,West,269,10.0,12.0,23,0.00,,---,0.00,VWS V14.00,2013-10-14 23:21:00,
2013-10-14 16:26:00,81.0,39.8,30.07,WSW,252,3.0,12.0,23,0.00,,---,0.00,VWS V14.00,2013-10-14 23:26:00,
2013-10-14 16:30:00,81.3,40.0,30.07,West,270,1.0,12.0,23,0.00,,---,0.00,VWS V14.00,2013-10-14 23:30:00,
2013-10-14 16:31:00,80.7,39.5,30.07,West,262,3.0,12.0,23,0.00,,---,0.00,VWS V14.00,2013-10-14 23:31:00,
2013-10-14 16:36:00,80.7,40.6,30.07,West,272,10.0,12.0,24,0.00,,---,0.00,VWS V14.00,2013-10-14 23:36:00,
2013-10-14 16:41:00,80.4,40.3,30.07,West,277,5.0,11.0,24,0.00,,---,0.00,VWS V14.00,2013-10-14 23:41:00,
2013-10-14 16:45:00,80.6,40.5,30.07,West,276,8.0,12.0,24,0.00,,---,0.00,VWS V14.00,2013-10-14 23:45:00,
2013-10-14 16:46:00,80.1,40.1,30.07,West,277,7.0,11.0,24,0.00,,---,0.00,VWS V14.00,2013-10-14 23:46:00,
2013-10-14 16:51:00,79.9,39.9,30.07,West,270,1.0,11.0,24,0.00,,---,0.00,VWS V14.00,2013-10-14 23:51:00,
2013-10-14 16:56:00,79.4,39.5,30.07,West,269,5.0,8.0,24,0.00,,---,0.00,VWS V14.00,2013-10-14 23:56:00,
2013-10-14 17:00:00,79.8,39.8,30.07,West,269,6.0,11.0,24,0.00,,---,0.00,VWS V14.00,2013-10-15 00:00:00,
2013-10-14 17:01:00,79.2,39.3,30.07,West,269,0.0,8.0,24,0.00,,---,0.00,VWS V14.00,2013-10-15 00:01:00,
2013-10-14 17:06:00,79.0,39.2,30.07,West,269,2.0,8.0,24,0.00,,---,0.00,VWS V14.00,2013-10-15 00:06:00,
2013-10-14 17:11:00,78.8,40.0,30.07,West,269,0.0,3.0,25,0.00,,---,0.00,VWS V14.00,2013-10-15 00:11:00,
2013-10-14 17:15:00,78.9,39.1,30.07,West,269,0.0,8.0,24,0.00,,---,0.00,VWS V14.00,2013-10-15 00:15:00,
2013-10-14 17:16:00,78.6,39.9,30.07,West,269,1.0,5.0,25,0.00,,---,0.00,VWS V14.00,2013-10-15 00:16:00,
2013-10-14 17:21:00,78.5,39.8,30.07,West,269,0.0,5.0,25,0.00,,---,0.00,VWS V14.00,2013-10-15 00:21:00,
2013-10-14 17:26:00,78.4,39.7,30.07,West,269,0.0,4.0,25,0.00,,---,0.00,VWS V14.00,2013-10-15 00:26:00,
2013-10-14 17:30:00,78.5,39.8,30.07,West,269,0.0,5.0,25,0.00,,---,0.00,VWS V14.00,2013-10-15 00:30:00,
2013-10-14 17:31:00,78.4,39.7,30.07,West,269,1.0,6.0,25,0.00,,---,0.00,VWS V14.00,2013-10-15 00:31:00,
2013-10-14 17:36:00,78.2,39.5,30.07,West,269,0.0,6.0,25,0.00,,---,0.00,VWS V14.00,2013-10-15 00:36:00,
2013-10-14 17:41:00,77.9,39.3,30.07,West,269,0.0,1.0,25,0.00,,---,0.00,VWS V14.00,2013-10-15 00:41:00,
2013-10-14 17:45:00,78.1,39.5,30.07,West,269,1.0,6.0,25,0.00,,---,0.00,VWS V14.00,2013-10-15 00:45:00,
2013-10-14 17:46:00,77.7,39.1,30.07,West,269,0.0,4.0,25,0.00,,---,0.00,VWS V14.00,2013-10-15 00:46:00,
2013-10-14 17:51:00,77.3,38.8,30.07,West,269,0.0,4.0,25,0.00,,---,0.00,VWS V14.00,2013-10-15 00:51:00,
2013-10-14 17:56:00,77.1,39.6,30.07,West,269,0.0,3.0,26,0.00,,---,0.00,VWS V14.00,2013-10-15 00:56:00,
2013-10-14 18:00:00,77.3,39.8,30.07,West,269,0.0,4.0,26,0.00,,---,0.00,VWS V14.00,2013-10-15 01:00:00,
2013-10-14 18:01:00,76.7,39.3,30.07,West,269,0.0,5.0,26,0.00,,---,0.00,VWS V14.00,2013-10-15 01:01:00,
2013-10-14 18:06:00,75.7,39.4,30.07,West,269,0.0,6.0,27,0.00,,---,0.00,VWS V14.00,2013-10-15 01:06:00,
2013-10-14 18:11:00,75.0,39.7,30.07,West,269,0.0,1.0,28,0.00,,---,0.00,VWS V14.00,2013-10-15 01:11:00,
2013-10-14 18:15:00,75.6,39.3,30.07,West,269,0.0,6.0,27,0.00,,---,0.00,VWS V14.00,2013-10-15 01:15:00,
2013-10-14 18:16:00,74.3,39.1,30.08,West,269,0.0,1.0,28,0.00,,---,0.00,VWS V14.00,2013-10-15 01:16:00,
2013-10-14 18:21:00,73.5,39.3,30.08,West,269,0.0,5.0,29,0.00,,---,0.00,VWS V14.00,2013-10-15 01:21:00,
2013-10-14 18:26:00,73.0,38.9,30.08,West,269,0.0,2.0,29,0.00,,---,0.00,VWS V14.00,2013-10-15 01:26:00,
2013-10-14 18:30:00,73.4,39.2,30.08,West,269,0.0,5.0,29,0.00,,---,0.00,VWS V14.00,2013-10-15 01:30:00,
2013-10-14 18:31:00,72.5,39.3,30.08,West,269,0.0,2.0,30,0.00,,---,0.00,VWS V14.00,2013-10-15 01:31:00,
2013-10-14 18:36:00,71.9,39.7,30.08,West,269,0.0,2.0,31,0.00,,---,0.00,VWS V14.00,2013-10-15 01:36:00,
2013-10-14 18:41:00,71.2,39.9,30.08,West,269,0.0,1.0,32,0.00,,---,0.00,VWS V14.00,2013-10-15 01:41:00,
2013-10-14 18:45:00,71.8,39.6,30.08,West,269,0.0,2.0,31,0.00,,---,0.00,VWS V14.00,2013-10-15 01:45:00,
2013-10-14 18:46:00,70.1,38.9,30.08,West,269,0.0,3.0,32,0.00,,---,0.00,VWS V14.00,2013-10-15 01:46:00,
2013-10-14 18:51:00,69.3,39.0,30.08,West,269,0.0,3.0,33,0.00,,---,0.00,VWS V14.00,2013-10-15 01:51:00,
2013-10-14 18:56:00,68.8,38.5,30.08,West,269,0.0,1.0,33,0.00,,---,0.00,VWS V14.00,2013-10-15 01:56:00,
2013-10-14 19:00:00,69.2,38.9,30.08,West,269,0.0,3.0,33,0.00,,---,0.00,VWS V14.00,2013-10-15 02:00:00,
2013-10-14 19:01:00,68.3,38.9,30.08,West,269,0.0,1.0,34,0.00,,---,0.00,VWS V14.00,2013-10-15 02:01:00,
2013-10-14 19:06:00,67.8,39.2,30.09,West,269,0.0,1.0,35,0.00,,---,0.00,VWS V14.00,2013-10-15 02:06:00,
2013-10-14 19:11:00,67.2,38.7,30.09,West,269,0.0,0.0,35,0.00,,---,0.00,VWS V14.00,2013-10-15 02:11:00,
2013-10-14 19:15:00,67.7,39.1,30.09,West,269,0.0,1.0,35,0.00,,---,0.00,VWS V14.00,2013-10-15 02:15:00,
2013-10-14 19:16:00,66.8,38.3,30.09,West,269,2.0,3.0,35,0.00,,---,0.00,VWS V14.00,2013-10-15 02:16:00,
2013-10-14 19:21:00,66.5,38.8,30.09,West,269,0.0,3.0,36,0.00,,---,0.00,VWS V14.00,2013-10-15 02:21:00,
2013-10-14 19:26:00,66.2,38.5,30.09,West,269,1.0,1.0,36,0.00,,---,0.00,VWS V14.00,2013-10-15 02:26:00,
2013-10-14 19:30:00,66.4,38.7,30.09,West,269,0.0,3.0,36,0.00,,---,0.00,VWS V14.00,2013-10-15 02:30:00,
2013-10-14 19:31:00,65.9,38.9,30.09,West,269,0.0,4.0,37,0.00,,---,0.00,VWS V14.00,2013-10-15 02:31:00,
2013-10-14 19:36:00,65.7,38.7,30.09,West,269,0.0,4.0,37,0.00,,---,0.00,VWS V14.00,2013-10-15 02:36:00,
2013-10-14 19:41:00,65.4,38.5,30.09,West,269,0.0,1.0,37,0.00,,---,0.00,VWS V14.00,2013-10-15 02:41:00,
2013-10-14 19:45:00,65.6,38.7,30.09,West,269,0.0,4.0,37,0.00,,---,0.00,VWS V14.00,2013-10-15 02:45:00,
2013-10-14 19:46:00,65.1,38.9,30.09,West,269,0.0,1.0,38,0.00,,---,0.00,VWS V14.00,2013-10-15 02:46:00,
2013-10-14 19:51:00,64.8,38.6,30.09,West,269,0.0,1.0,38,0.00,,---,0.00,VWS V14.00,2013-10-15 02:51:00,
2013-10-14 19:56:00,64.4,38.3,30.09,West,269,0.0,0.0,38,0.00,,---,0.00,VWS V14.00,2013-10-15 02:56:00,
2013-10-14 20:00:00,64.7,38.5,30.09,West,269,0.0,1.0,38,0.00,,---,0.00,VWS V14.00,2013-10-15 03:00:00,
2013-10-14 20:01:00,64.2,38.8,30.09,West,269,0.0,0.0,39,0.00,,---,0.00,VWS V14.00,2013-10-15 03:01:00,
2013-10-14 20:06:00,64.0,38.6,30.09,West,269,0.0,1.0,39,0.00,,---,0.00,VWS V14.00,2013-10-15 03:06:00,
2013-10-14 20:11:00,63.6,38.9,30.09,West,269,0.0,0.0,40,0.00,,---,0.00,VWS V14.00,2013-10-15 03:11:00,
2013-10-14 20:15:00,63.9,39.1,30.09,West,269,0.0,1.0,40,0.00,,---,0.00,VWS V14.00,2013-10-15 03:15:00,
2013-10-14 20:16:00,63.4,38.7,30.09,West,269,0.0,0.0,40,0.00,,---,0.00,VWS V14.00,2013-10-15 03:16:00,
2013-10-14 20:21:00,63.2,39.1,30.09,West,269,0.0,0.0,41,0.00,,---,0.00,VWS V14.00,2013-10-15 03:21:00,
2013-10-14 20:26:00,62.9,38.9,30.09,West,269,0.0,0.0,41,0.00,,---,0.00,VWS V14.00,2013-10-15 03:26:00,
2013-10-14 20:30:00,63.1,39.0,30.09,West,269,0.0,0.0,41,0.00,,---,0.00,VWS V14.00,2013-10-15 03:30:00,
2013-10-14 20:31:00,62.5,39.1,30.09,West,269,0.0,0.0,42,0.00,,---,0.00,VWS V14.00,2013-10-15 03:31:00,
2013-10-14 20:36:00,62.1,38.8,30.09,West,269,0.0,0.0,42,0.00,,---,0.00,VWS V14.00,2013-10-15 03:36:00,
2013-10-14 20:41:00,61.8,39.1,30.10,West,269,0.0,0.0,43,0.00,,---,0.00,VWS V14.00,2013-10-15 03:41:00,
2013-10-14 20:45:00,62.1,38.8,30.09,West,269,0.0,0.0,42,0.00,,---,0.00,VWS V14.00,2013-10-15 03:45:00,
2013-10-14 20:46:00,61.6,38.9,30.10,West,269,0.0,0.0,43,0.00,,---,0.00,VWS V14.00,2013-10-15 03:46:00,
2013-10-14 20:51:00,61.4,38.7,30.10,West,269,0.0,0.0,43,0.00,,---,0.00,VWS V14.00,2013-10-15 03:51:00,
2013-10-14 20:56:00,61.2,38.5,30.10,West,269,0.0,0.0,43,0.00,,---,0.00,VWS V14.00,2013-10-15 03:56:00,
2013-10-14 21:00:00,61.4,38.7,30.10,West,269,0.0,0.0,43,0.00,,---,0.00,VWS V14.00,2013-10-15 04:00:00,
2013-10-14 21:01:00,61.1,39.0,30.10,West,269,0.0,0.0,44,0.00,,---,0.00,VWS V14.00,2013-10-15 04:01:00,
2013-10-14 21:06:00,60.8,39.3,30.10,West,269,0.0,0.0,45,0.00,,---,0.00,VWS V14.00,2013-10-15 04:06:00,
2013-10-14 21:11:00,60.5,39.1,30.10,West,269,0.0,0.0,45,0.00,,---,0.00,VWS V14.00,2013-10-15 04:11:00,
2013-10-14 21:15:00,60.7,39.3,30.10,West,269,0.0,0.0,45,0.00,,---,0.00,VWS V14.00,2013-10-15 04:15:00,
2013-10-14 21:16:00,60.3,39.5,30.10,West,269,0.0,0.0,46,0.00,,---,0.00,VWS V14.00,2013-10-15 04:16:00,
2013-10-14 21:21:00,59.9,40.2,30.10,West,269,0.0,0.0,48,0.00,,---,0.00,VWS V14.00,2013-10-15 04:21:00,
2013-10-14 21:26:00,59.5,39.8,30.10,West,269,0.0,0.0,48,0.00,,---,0.00,VWS V14.00,2013-10-15 04:26:00,
2013-10-14 21:30:00,59.8,40.1,30.10,West,269,0.0,0.0,48,0.00,,---,0.00,VWS V14.00,2013-10-15 04:30:00,
2013-10-14 21:31:00,59.3,39.6,30.10,West,269,0.0,0.0,48,0.00,,---,0.00,VWS V14.00,2013-10-15 04:31:00,
2013-10-14 21:36:00,59.0,39.4,30.11,West,269,0.0,0.0,48,0.00,,---,0.00,VWS V14.00,2013-10-15 04:36:00,
2013-10-14 21:41:00,58.7,39.1,30.11,West,269,0.0,0.0,48,0.00,,---,0.00,VWS V14.00,2013-10-15 04:41:00,
2013-10-14 21:45:00,58.9,39.3,30.11,West,269,0.0,0.0,48,0.00,,---,0.00,VWS V14.00,2013-10-15 04:45:00,
2013-10-14 21:46:00,58.6,39.0,30.11,West,269,0.0,0.0,48,0.00,,---,0.00,VWS V14.00,2013-10-15 04:46:00,
2013-10-14 21:51:00,58.4,38.8,30.11,West,269,0.0,0.0,48,0.00,,---,0.00,VWS V14.00,2013-10-15 04:51:00,
2013-10-14 21:56:00,58.1,39.6,30.11,West,269,0.0,0.0,50,0.00,,---,0.00,VWS V14.00,2013-10-15 04:56:00,
2013-10-14 22:00:00,58.3,39.2,30.11,West,269,0.0,0.0,49,0.00,,---,0.00,VWS V14.00,2013-10-15 05:00:00,
2013-10-14 22:01:00,57.8,39.3,30.11,West,269,0.0,0.0,50,0.00,,---,0.00,VWS V14.00,2013-10-15 05:01:00,
2013-10-14 22:06:00,57.5,39.0,30.11,West,269,0.0,0.0,50,0.00,,---,0.00,VWS V14.00,2013-10-15 05:06:00,
2013-10-14 22:11:00,57.2,39.2,30.11,West,269,0.0,0.0,51,0.00,,---,0.00,VWS V14.00,2013-10-15 05:11:00,
2013-10-14 22:15:00,57.4,39.4,30.11,West,269,0.0,0.0,51,0.00,,---,0.00,VWS V14.00,2013-10-15 05:15:00,
2013-10-14 22:16:00,56.9,39.5,30.11,West,269,0.0,0.0,52,0.00,,---,0.00,VWS V14.00,2013-10-15 05:16:00,
2013-10-14 22:21:00,56.6,39.2,30.11,West,269,0.0,0.0,52,0.00,,---,0.00,VWS V14.00,2013-10-15 05:21:00,
2013-10-14 22:26:00,56.3,39.4,30.11,West,269,0.0,0.0,53,0.00,,---,0.00,VWS V14.00,2013-10-15 05:26:00,
2013-10-14 22:30:00,56.5,39.1,30.11,West,269,0.0,0.0,52,0.00,,---,0.00,VWS V14.00,2013-10-15 05:30:00,
2013-10-14 22:31:00,56.0,39.1,30.11,West,269,0.0,0.0,53,0.00,,---,0.00,VWS V14.00,2013-10-15 05:31:00,
2013-10-14 22:36:00,55.8,39.4,30.11,West,269,0.0,0.0,54,0.00,,---,0.00,VWS V14.00,2013-10-15 05:36:00,
2013-10-14 22:41:00,55.4,39.0,30.11,West,269,0.0,0.0,54,0.00,,---,0.00,VWS V14.00,2013-10-15 05:41:00,
2013-10-14 22:45:00,55.7,39.3,30.11,West,269,0.0,0.0,54,0.00,,---,0.00,VWS V14.00,2013-10-15 05:45:00,
2013-10-14 22:46:00,55.2,39.3,30.11,West,269,0.0,0.0,55,0.00,,---,0.00,VWS V14.00,2013-10-15 05:46:00,
2013-10-14 22:51:00,54.9,39.5,30.11,West,269,0.0,0.0,56,0.00,,---,0.00,VWS V14.00,2013-10-15 05:51:00,
2013-10-14 22:56:00,54.6,39.2,30.11,West,269,0.0,0.0,56,0.00,,---,0.00,VWS V14.00,2013-10-15 05:56:00,
2013-10-14 23:00:00,54.8,39.4,30.11,West,269,0.0,0.0,56,0.00,,---,0.00,VWS V14.00,2013-10-15 06:00:00,
2013-10-14 23:01:00,54.4,39.5,30.11,West,269,0.0,0.0,57,0.00,,---,0.00,VWS V14.00,2013-10-15 06:01:00,
2013-10-14 23:06:00,54.1,39.2,30.11,West,269,0.0,0.0,57,0.00,,---,0.00,VWS V14.00,2013-10-15 06:06:00,
2013-10-14 23:11:00,53.8,39.4,30.11,West,269,0.0,0.0,58,0.00,,---,0.00,VWS V14.00,2013-10-15 06:11:00,
2013-10-14 23:15:00,54.0,39.6,30.11,West,269,0.0,0.0,58,0.00,,---,0.00,VWS V14.00,2013-10-15 06:15:00,
2013-10-14 23:16:00,53.5,39.5,30.11,West,269,0.0,0.0,59,0.00,,---,0.00,VWS V14.00,2013-10-15 06:16:00,
2013-10-14 23:21:00,53.2,39.7,30.11,West,269,0.0,0.0,60,0.00,,---,0.00,VWS V14.00,2013-10-15 06:21:00,
2013-10-14 23:26:00,53.0,39.5,30.11,West,269,0.0,0.0,60,0.00,,---,0.00,VWS V14.00,2013-10-15 06:26:00,
2013-10-14 23:30:00,53.2,39.3,30.11,West,269,0.0,0.0,59,0.00,,---,0.00,VWS V14.00,2013-10-15 06:30:00,
2013-10-14 23:31:00,52.7,39.6,30.11,West,269,0.0,0.0,61,0.00,,---,0.00,VWS V14.00,2013-10-15 06:31:00,
2013-10-14 23:36:00,52.5,39.5,30.11,West,269,0.0,0.0,61,0.00,,---,0.00,VWS V14.00,2013-10-15 06:36:00,
2013-10-14 23:41:00,52.3,39.3,30.11,West,269,0.0,0.0,61,0.00,,---,0.00,VWS V14.00,2013-10-15 06:41:00,
2013-10-14 23:45:00,52.4,39.4,30.11,West,269,0.0,0.0,61,0.00,,---,0.00,VWS V14.00,2013-10-15 06:45:00,
2013-10-14 23:46:00,52.1,39.5,30.11,West,269,0.0,0.0,62,0.00,,---,0.00,VWS V14.00,2013-10-15 06:46:00,
2013-10-14 23:51:00,51.9,38.9,30.11,West,269,0.0,0.0,61,0.00,,---,0.00,VWS V14.00,2013-10-15 06:51:00,
2013-10-14 23:56:00,51.7,39.1,30.11,West,269,0.0,0.0,62,0.00,,---,0.00,VWS V14.00,2013-10-15 06:56:00,